GW5048 Weather Reports


time (UTC)temp
C
wind
direction
speed
KPH
gust
KPH
rain 1hr
cm
rain 24hr
cm
rain mn
cm
humidity
%
barometer
mb
20260502170108 8 180 4.8 6.4 0.00 0.00 0.00 47 955.1
20260502164054 8 237 3.2 4.8 0.00 0.00 0.00 53 955.1
20260502163550 7 6 3.2 6.4 0.00 0.00 0.00 52 954.9
20260502163047 8 348 3.2 6.4 0.00 0.00 0.00 53 955.3
20260502162544 8 232 3.2 9.7 0.00 0.00 0.00 52 955.5
20260502162041 8 239 6.4 9.7 0.00 0.00 0.00 51 955.5
20260502161538 8 189 0.0 3.2 0.00 0.00 0.00 49 955.4
20260502161036 8 206 3.2 4.8 0.00 0.00 0.00 47 955.2
20260502160533 8 252 3.2 6.4 0.00 0.00 0.00 49 955.4
20260502151947 8 279 3.2 6.4 0.00 0.00 0.00 46 955.4
20260502151443 8 321 0.0 3.2 0.00 0.00 0.00 55 955.5
20260502150941 7 342 1.6 9.7 0.00 0.00 0.00 51 955.4
20260502150438 8 267 3.2 17.7 0.00 0.00 0.00 51 955.5
20260502130323 5 306 3.2 6.4 0.00 0.00 0.00 77 955.3
20260502123808 4 311 1.6 1.6 0.00 0.00 0.00 82 955.3
20260502123306 4 281 0.0 3.2 0.00 0.00 0.00 83 955.2
20260502122802 4 343 0.0 0.0 0.00 0.00 0.00 86 955.4
20260502122258 3 284 0.0 1.6 0.00 0.00 0.00 86 955.4
20260502121757 3 9 0.0 4.8 0.00 0.00 0.00 87 955.2
20260502121254 3 260 0.0 0.0 0.00 0.00 0.00 88 955.3
20260502120751 3 297 1.6 1.6 0.00 0.00 0.00 88 955.3
20260502120248 3 261 0.0 0.0 0.00 0.00 0.00 89 955.1
20260502115745 3 298 0.0 0.0 0.00 0.00 0.00 90 955.2
20260502115242 3 298 0.0 0.0 0.00 0.00 0.00 90 955.3
20260502114738 2 273 0.0 0.0 0.00 0.00 0.00 91 955.3
20260502114235 2 238 0.0 0.0 0.00 0.00 0.00 91 955.3
20260502113732 2 239 0.0 0.0 0.00 0.00 0.00 92 955.3
20260502113230 2 238 0.0 0.0 0.00 0.00 0.00 93 955.1
20260502112728 2 240 0.0 0.0 0.00 0.00 0.00 94 955.3
20260502112225 2 236 0.0 0.0 0.00 0.00 0.00 95 955.2
20260502111722 2 236 0.0 0.0 0.00 0.00 0.00 95 955.2
20260502111220 1 236 0.0 0.0 0.00 0.00 0.00 95 954.9
20260502110717 1 236 0.0 0.0 0.00 0.00 0.00 95 955.2
20260502110215 1 236 0.0 0.0 0.00 0.00 0.00 95 955.0
20260502105713 1 236 0.0 0.0 0.00 0.00 0.00 95 954.7
20260502105209 1 236 0.0 0.0 0.00 0.00 0.00 94 954.9
20260502104706 1 236 0.0 0.0 0.00 0.00 0.00 94 955.1
20260502104204 1 236 0.0 0.0 0.00 0.00 0.00 94 955.1
20260502103701 1 236 0.0 0.0 0.00 0.00 0.00 93 955.1
20260502103159 1 236 0.0 0.0 0.00 0.00 0.00 93 955.0
20260502102655 1 236 0.0 0.0 0.00 0.00 0.00 93 955.3
20260502102152 2 235 0.0 0.0 0.00 0.00 0.00 93 955.2
20260502101650 2 235 0.0 0.0 0.00 0.00 0.00 93 955.0
20260502101148 2 235 0.0 0.0 0.00 0.00 0.00 92 954.9
20260502100646 2 235 0.0 0.0 0.00 0.00 0.00 92 955.2
20260502100144 2 235 0.0 0.0 0.00 0.00 0.00 92 955.0
20260502091118 3 265 0.0 0.0 0.00 0.00 0.00 88 955.1
20260502090615 3 239 3.2 3.2 0.00 0.00 0.00 88 955.3
20260502090113 3 350 0.0 3.2 0.00 0.00 0.00 87 955.4
20260502071510 4 276 0.0 0.0 0.00 0.00 0.00 81 955.3
20260502071008 4 139 0.0 0.0 0.00 0.00 0.00 80 955.2
20260502070506 4 74 0.0 0.0 0.00 0.00 0.00 80 955.2
20260502070004 4 250 0.0 0.0 0.00 0.00 0.00 80 955.1
20260502065502 4 250 0.0 0.0 0.00 0.00 0.00 80 955.1
20260502065000 4 238 0.0 0.0 0.00 0.00 0.00 81 955.0
20260502064457 3 238 0.0 0.0 0.00 0.00 0.00 82 955.2
20260502063954 3 238 0.0 0.0 0.00 0.00 0.00 82 954.9
20260502063452 3 238 0.0 0.0 0.00 0.00 0.00 82 955.4
20260502062949 3 233 0.0 0.0 0.00 0.00 0.00 81 955.2
20260502062446 4 233 0.0 0.0 0.00 0.00 0.00 80 955.4
20260502061945 4 219 0.0 0.0 0.00 0.00 0.00 79 955.5
20260502061443 4 218 0.0 0.0 0.00 0.00 0.00 77 955.4
20260502060938 5 211 0.0 0.0 0.00 0.00 0.00 76 955.3
20260502060434 5 270 1.6 3.2 0.00 0.00 0.00 76 955.2
20260502055931 5 279 0.0 0.0 0.00 0.00 0.00 77 955.3
20260502055429 5 230 0.0 1.6 0.00 0.00 0.00 75 955.3
20260502054929 5 43 0.0 1.6 0.00 0.00 0.00 75 955.2
20260502054426 5 260 1.6 3.2 0.00 0.00 0.00 74 955.4
20260502053923 5 267 0.0 4.8 0.00 0.00 0.00 75 955.3
20260502053420 6 306 0.0 0.0 0.00 0.00 0.00 74 955.4
20260502052918 6 294 1.6 3.2 0.00 0.00 0.00 73 955.3
20260502052416 6 269 0.0 0.0 0.00 0.00 0.00 73 955.5
20260502051913 6 38 1.6 6.4 0.00 0.00 0.00 72 955.5
20260502051412 6 319 3.2 4.8 0.00 0.00 0.00 74 955.7
20260502050908 6 265 1.6 3.2 0.00 0.00 0.00 75 955.4
20260502050405 6 288 0.0 1.6 0.00 0.00 0.00 75 955.5
20260502045902 6 273 0.0 4.8 0.00 0.00 0.00 73 955.5
20260502045358 6 144 1.6 3.2 0.00 0.00 0.00 73 955.7
20260502044855 6 33 3.2 4.8 0.00 0.00 0.00 72 955.6
20260502044351 6 298 1.6 6.4 0.00 0.00 0.00 71 955.5
20260502043849 6 245 1.6 3.2 0.00 0.00 0.00 71 955.7
20260502043346 6 255 1.6 3.2 0.00 0.00 0.00 72 955.6
20260502042845 6 119 0.0 0.0 0.00 0.00 0.00 72 955.6
20260502042343 6 79 3.2 6.4 0.00 0.00 0.00 72 955.6
20260502041840 6 290 0.0 3.2 0.00 0.00 0.00 76 955.8
20260502041337 6 346 3.2 4.8 0.00 0.00 0.00 76 955.6
20260502040835 6 255 3.2 4.8 0.00 0.00 0.00 77 955.5
20260502040332 6 309 0.0 4.8 0.00 0.00 0.00 79 955.4
20260502035828 7 145 0.0 3.2 0.00 0.00 0.00 79 955.4
20260502035324 7 257 1.6 4.8 0.00 0.00 0.00 79 955.4
20260502034822 7 243 0.0 3.2 0.00 0.00 0.00 78 955.7
20260502034320 7 314 1.6 3.2 0.00 0.00 0.00 78 955.6
20260502033818 7 147 0.0 1.6 0.00 0.00 0.00 78 955.7
20260502033315 7 253 0.0 1.6 0.00 0.00 0.00 78 955.5
20260502032812 7 232 0.0 1.6 0.00 0.00 0.00 77 955.7
20260502032308 7 199 1.6 6.4 0.00 0.00 0.00 77 955.5
20260502031806 7 266 3.2 4.8 0.00 0.00 0.00 76 955.5
20260502031304 7 0 0.0 3.2 0.00 0.00 0.00 77 955.5
20260502030802 7 313 0.0 0.0 0.00 0.00 0.00 76 955.5
20260502030300 7 221 1.6 4.8 0.00 0.00 0.00 76 955.3
20260502025757 7 237 3.2 4.8 0.00 0.00 0.00 75 955.4
20260502025255 7 325 6.4 9.7 0.00 0.00 0.00 74 955.3
20260502024752 7 270 4.8 6.4 0.00 0.00 0.00 74 955.2
20260502024250 7 309 1.6 3.2 0.00 0.00 0.00 75 955.1
20260502023748 7 350 1.6 1.6 0.00 0.00 0.00 74 955.1
20260502023245 7 228 1.6 6.4 0.00 0.00 0.00 74 954.8
20260502022743 7 358 0.0 6.4 0.00 0.00 0.00 74 954.9
20260502022239 7 251 1.6 4.8 0.00 0.00 0.00 73 955.0
20260502021736 7 268 3.2 4.8 0.00 0.00 0.00 73 955.1
20260502021233 7 310 1.6 4.8 0.00 0.00 0.00 73 954.9
20260502020730 7 230 1.6 4.8 0.00 0.00 0.00 73 954.8
20260502020227 7 309 0.0 0.0 0.00 0.00 0.00 73 954.6
20260502015726 8 241 1.6 4.8 0.00 0.00 0.00 73 954.7
20260502015221 8 305 1.6 3.2 0.00 0.00 0.00 73 954.6
20260502014719 8 359 3.2 11.3 0.00 0.00 0.00 73 954.4
20260502014216 8 218 6.4 9.7 0.00 0.00 0.00 73 954.5
20260502013712 8 341 8.0 12.9 0.00 0.00 0.00 73 954.5
20260502013207 8 322 1.6 6.4 0.00 0.00 0.00 73 954.4
20260502012705 8 267 1.6 4.8 0.00 0.00 0.00 74 954.3
20260502012203 8 244 0.0 3.2 0.00 0.00 0.00 74 954.5
20260502011659 8 30 1.6 4.8 0.00 0.00 0.00 74 954.2
20260502011155 8 311 1.6 3.2 0.00 0.00 0.00 74 954.2
20260502010653 8 290 1.6 3.2 0.00 0.00 0.00 73 954.3
20260502010149 9 336 4.8 12.9 0.00 0.00 0.00 74 954.1
20260502005646 9 38 1.6 4.8 0.00 0.00 0.00 75 953.9
20260502005144 9 289 0.0 4.8 0.00 0.00 0.00 75 953.7
20260502004640 9 236 3.2 4.8 0.00 0.00 0.00 75 953.7
20260502004137 9 225 1.6 3.2 0.00 0.00 0.00 76 953.8
20260502003635 9 351 4.8 9.7 0.00 0.00 0.00 77 953.6
20260502003132 9 323 3.2 12.9 0.00 0.00 0.00 77 953.5
20260502002627 9 341 1.6 4.8 0.00 0.00 0.00 76 953.5
20260502002125 9 217 0.0 1.6 0.00 0.00 0.00 76 953.3
20260502001623 9 167 1.6 3.2 0.00 0.00 0.00 75 952.9
20260502001120 10 236 3.2 3.2 0.00 0.00 0.00 74 952.9
20260502000618 10 209 0.0 0.0 0.00 0.00 0.00 73 952.7
20260502000115 10 72 0.0 12.9 0.00 0.00 0.00 72 952.9
20260501235611 10 29 8.0 12.9 0.00 0.00 0.00 70 952.4
20260501235107 10 57 3.2 9.7 0.00 0.00 0.00 71 952.5
20260501234602 10 271 6.4 11.3 0.00 0.00 0.00 69 952.6
20260501234100 10 165 1.6 11.3 0.00 0.00 0.00 69 952.4
20260501233558 10 249 4.8 11.3 0.00 0.00 0.00 68 952.3
20260501233055 11 330 3.2 9.7 0.00 0.00 0.00 67 952.3
20260501232551 11 240 0.0 9.7 0.00 0.00 0.00 66 952.1
20260501232049 11 349 0.0 9.7 0.00 0.00 0.00 66 952.1
20260501231546 11 321 4.8 4.8 0.00 0.00 0.00 65 952.2
20260501231044 11 329 4.8 14.5 0.00 0.00 0.00 63 952.0
20260501230543 12 259 6.4 11.3 0.00 0.00 0.00 60 952.1
20260501230041 12 325 3.2 14.5 0.00 0.00 0.00 60 952.1
20260501225538 12 282 3.2 9.7 0.00 0.00 0.00 57 952.1
20260501225034 12 256 3.2 6.4 0.00 0.00 0.00 58 951.9
20260501224532 13 75 1.6 9.7 0.00 0.00 0.00 53 951.9
20260501224028 14 325 3.2 9.7 0.00 0.00 0.00 50 951.6
20260501223525 15 55 6.4 14.5 0.00 0.00 0.00 46 951.4
20260501223021 16 261 1.6 4.8 0.00 0.00 0.00 38 951.2
20260501222517 16 252 3.2 6.4 0.00 0.00 0.00 39 951.4
20260501222014 16 214 1.6 14.5 0.00 0.00 0.00 39 951.3
20260501221511 16 236 3.2 6.4 0.00 0.00 0.00 38 951.2
20260501221009 16 289 0.0 6.4 0.00 0.00 0.00 39 951.5
20260501220506 17 281 3.2 6.4 0.00 0.00 0.00 35 951.3
20260501220002 17 254 0.0 4.8 0.00 0.00 0.00 34 951.2
20260501215459 16 272 6.4 9.7 0.00 0.00 0.00 33 951.5
20260501214954 16 222 6.4 11.3 0.00 0.00 0.00 37 951.3
20260501214450 16 254 1.6 9.7 0.00 0.00 0.00 35 951.2
20260501213946 16 238 1.6 6.4 0.00 0.00 0.00 33 951.3
20260501213444 16 219 6.4 12.9 0.00 0.00 0.00 35 951.3
20260501212944 17 222 3.2 17.7 0.00 0.00 0.00 33 951.1
20260501212441 17 227 3.2 9.7 0.00 0.00 0.00 33 951.4
20260501211938 18 223 0.0 6.4 0.00 0.00 0.00 35 951.4
20260501211436 17 17 3.2 6.4 0.00 0.00 0.00 32 951.2
20260501210933 17 157 3.2 4.8 0.00 0.00 0.00 34 951.2
20260501210429 17 255 9.7 16.1 0.00 0.00 0.00 31 951.5
20260501205926 17 35 4.8 6.4 0.00 0.00 0.00 31 951.4
20260501205423 17 190 6.4 17.7 0.00 0.00 0.00 31 951.4
20260501204920 17 154 8.0 14.5 0.00 0.00 0.00 30 951.5
20260501204416 17 246 1.6 9.7 0.00 0.00 0.00 34 951.4
20260501203912 17 194 1.6 9.7 0.00 0.00 0.00 32 951.4
20260501203409 18 336 4.8 11.3 0.00 0.00 0.00 30 951.4
20260501202907 17 215 8.0 25.7 0.00 0.00 0.00 28 951.2
20260501202403 17 289 3.2 11.3 0.00 0.00 0.00 28 951.4
20260501201900 18 235 8.0 11.3 0.00 0.00 0.00 27 951.2
20260501201357 18 319 3.2 20.9 0.00 0.00 0.00 31 951.1
20260501200853 17 259 4.8 11.3 0.00 0.00 0.00 29 951.2
20260501200350 18 254 4.8 6.4 0.00 0.00 0.00 29 951.1
20260501195849 18 228 4.8 9.7 0.00 0.00 0.00 32 951.4
20260501195344 17 282 9.7 12.9 0.00 0.00 0.00 26 951.5
20260501194840 18 209 1.6 3.2 0.00 0.00 0.00 29 951.5
20260501194336 17 266 6.4 14.5 0.00 0.00 0.00 25 951.5
20260501193833 18 273 9.7 12.9 0.00 0.00 0.00 25 951.5
20260501193331 18 202 8.0 14.5 0.00 0.00 0.00 24 951.5
20260501192828 18 315 4.8 12.9 0.00 0.00 0.00 26 951.5
20260501192326 17 204 9.7 12.9 0.00 0.00 0.00 31 951.5
20260501191822 17 173 8.0 14.5 0.00 0.00 0.00 26 951.3
20260501191320 17 336 3.2 11.3 0.00 0.00 0.00 26 951.6
20260501190816 18 263 6.4 12.9 0.00 0.00 0.00 25 952.0
20260501190312 17 328 6.4 9.7 0.00 0.00 0.00 23 952.1
20260501185808 17 221 6.4 9.7 0.00 0.00 0.00 26 951.9
20260501185306 17 177 9.7 11.3 0.00 0.00 0.00 24 952.0
20260501184800 17 244 4.8 16.1 0.00 0.00 0.00 27 952.1
20260501184255 17 223 6.4 9.7 0.00 0.00 0.00 24 951.9
20260501183752 17 239 9.7 11.3 0.00 0.00 0.00 25 951.6
20260501183249 17 277 3.2 4.8 0.00 0.00 0.00 36 952.0
20260501182745 16 197 1.6 9.7 0.00 0.00 0.00 33 951.9
20260501182242 17 212 9.7 12.9 0.00 0.00 0.00 37 951.7
20260501181739 16 196 9.7 14.5 0.00 0.00 0.00 37 952.1
20260501181236 17 200 3.2 4.8 0.00 0.00 0.00 41 952.2
20260501180734 17 199 9.7 14.5 0.00 0.00 0.00 39 952.2
20260501180229 16 246 0.0 3.2 0.00 0.00 0.00 41 952.3
20260501175726 16 166 3.2 14.5 0.00 0.00 0.00 37 952.2
20260501175224 16 177 1.6 4.8 0.00 0.00 0.00 36 952.3
20260501174720 15 215 4.8 6.4 0.00 0.00 0.00 41 952.2
20260501174218 16 291 4.8 6.4 0.00 0.00 0.00 43 952.4
20260501173715 15 196 3.2 4.8 0.00 0.00 0.00 50 952.6
20260501173212 15 202 1.6 6.4 0.00 0.00 0.00 55 952.6
20260501172708 14 76 6.4 11.3 0.00 0.00 0.00 42 952.7
20260501172203 14 180 4.8 6.4 0.00 0.00 0.00 45 952.8
20260501171659 15 164 6.4 9.7 0.00 0.00 0.00 45 952.9